Погода в Монтижу

Португалия     38°42′22″N   8°58′29″W
темп.,
°C
ветер,
м/с
пор.,
м/с
влажн.,
%
обл.,
%
осадки,
мм/ч
давл.,
гПа
погр.,
м
12 августа, пт
пт1201:00+20сз22840 0.0 101643
04:00+19ссз12890 0.0 101542
07:00+18всв22910 0.0 101571
10:00+20ссв228116 0.0 1016256
13:00+21з127342 0.0 1015377
16:00+27з44480 0.0 1014314
19:00+24сз79600 0.0 1014227
22:00+20сз46791 0.0 1014122
13 августа, сб
сб1301:00+19ссз23861 0.0 101459
04:00+19сз34873 0.0 1014125
07:00+18ссз34892 0.0 1013166
10:00+20с2277100 0.0 1015219
13:00+24з225127 0.0 1014387
16:00+26сз78431 0.0 1012394
19:00+24сз78500 0.0 1012251
22:00+19ссз597822 0.0 1014293
14 августа, вс
вс1401:00+18ссз36857 0.0 1014285
04:00+18ссз488426 0.0 1013324
07:00+18ссз36850 0.0 1014318
10:00+21ссз46700 0.0 1014398
13:00+25сз66520 0.0 1013432
16:00+25сз89480 0.0 1013485
19:00+23ссз89560 0.0 1013384
22:00+19ссз610820 0.0 1014480
15 августа, пн
пн1501:00+19сз59870 0.0 1014453
04:00+19сз48870 0.0 1013403
07:00+19зсз47870 0.0 1013358
10:00+22сз56700 0.0 1014341
13:00+25зсз67540 0.0 1013499
16:00+25зсз78520 0.0 1012439
19:00+23сз79580 0.0 1013341
22:00+20сз47790 0.0 1014168
16 августа, вт
вт1601:00+20з33810 0.0 101332
04:00+20зюз34873 0.0 101272
07:00+20юз469356 0.4 1012190
10:00+22сз44750 0.7 1013280
13:00+24зсз776110 0.7 1013618
16:00+24сз99560 0.0 1012624
19:00+22ссз911600 0.0 1013538
22:00+19ссз813810 0.0 1015835